Flag for China Weather past 2 weeks in Shanghai, Shanghai Municipality, China

Now
77 °F

Clear.


Feels Like: 79 °F
Forecast: 74 / 81 °F
Wind: 8 mph from East

Location: Shanghai Hongqiao Airport

Current Time: Sep 17, 2014 at 12:20:19 AM

Latest Report: Sep 17, 2014 at 12:00 AM


Visibility: 10 mi

Pressure: 29.98 "Hg

Humidity: 69%

Dew point: 66 °F

Location of ShanghaiLocation

Historic Weather in Shanghai — Graph

°F

Shanghai temperature yesterday

Maximum temperature yesterday: 82 °F (at 12:30 PM)
Minimum temperature yesterday: 73 °F (at 12:00 AM)
Average temperature yesterday: 77 °F

Past Weeks' High & Low Weather Summary

 TemperatureHumidityPressure
High90 °F (Sep 2, 2:30 PM)100% (Sep 3, 8:00 AM)30.01 "Hg (Sep 3, 8:00 AM)
Low70 °F (Sep 4, 3:00 AM)45% (Sep 11, 12:30 PM)29.71 "Hg (Sep 2, 2:00 PM)
Average78 °F75%29.83 "Hg
* Reported Sep 1 11:00 PM — Sep 16 11:00 PM, Shanghai, Weather by CustomWeather, © 2014

Note: Actual official high and low records may vary slightly from our data, if they occured in-between our weather recording intervals... More about our weather records

Advertising

Shanghai weather history for previous 24 hours

 ConditionsComfort  
Time TempWeatherWind HumidityBarometerVisibility
11:00 PM
Sep 16
77 °FPassing clouds.8 mph69%29.98 "HgN/A
10:30 PM77 °FClear.10 mph74%29.98 "Hg10 mi
10:00 PM77 °FClear.8 mph74%29.98 "Hg10 mi
9:30 PM77 °FPassing clouds.10 mph74%29.98 "HgN/A
9:00 PM77 °FPassing clouds.10 mph74%29.98 "HgN/A
8:30 PM77 °FPassing clouds.8 mph74%29.98 "HgN/A
8:00 PM77 °FPassing clouds.10 mph74%29.98 "HgN/A
7:30 PM77 °FPassing clouds.8 mph74%29.98 "HgN/A
7:00 PM79 °FPassing clouds.10 mph70%29.95 "HgN/A
6:30 PM79 °FPassing clouds.10 mph70%29.95 "HgN/A
6:00 PM79 °FPassing clouds.8 mph70%29.95 "HgN/A
5:30 PM79 °FPassing clouds.10 mph70%29.95 "HgN/A
5:00 PM79 °FPassing clouds.10 mph70%29.95 "HgN/A
4:30 PM81 °FSunny.13 mph62%29.95 "Hg10 mi
4:00 PM81 °FPassing clouds.13 mph58%29.95 "HgN/A
3:30 PM81 °FPassing clouds.10 mph62%29.95 "HgN/A
3:00 PM81 °FPassing clouds.10 mph62%29.92 "HgN/A
2:30 PM82 °FScattered clouds.10 mph62%29.95 "HgN/A
2:00 PM82 °FScattered clouds.10 mph55%29.95 "HgN/A
1:30 PM82 °FScattered clouds.8 mph58%29.95 "HgN/A
1:00 PM81 °FScattered clouds.10 mph62%29.95 "HgN/A
12:30 PM82 °FPassing clouds.10 mph58%29.98 "HgN/A
12:00 PM81 °FPassing clouds.10 mph58%29.98 "HgN/A
11:30 AM81 °FPassing clouds.8 mph62%29.98 "HgN/A
11:00 AM81 °FPassing clouds.10 mph58%29.98 "HgN/A
10:30 AM79 °FPassing clouds.10 mph61%30.01 "HgN/A
10:00 AM79 °FScattered clouds.8 mph70%30.01 "HgN/A
9:00 AM77 °FScattered clouds.8 mph69%30.01 "HgN/A
8:30 AM77 °FScattered clouds.10 mph69%30.01 "HgN/A
8:00 AM77 °FPassing clouds.8 mph69%29.98 "HgN/A
7:30 AM75 °FSunny.8 mph74%29.98 "Hg10 mi
7:00 AM75 °FSunny.8 mph74%29.98 "Hg10 mi
6:30 AM75 °FPassing clouds.3 mph74%29.98 "HgN/A
6:00 AM75 °FSunny.8 mph78%29.95 "Hg10 mi
5:30 AM73 °FClear.6 mph78%29.95 "Hg10 mi
5:00 AM73 °FClear.6 mph78%29.95 "Hg10 mi
4:30 AM73 °FClear.6 mph78%29.95 "Hg10 mi
4:00 AM73 °FClear.6 mph83%29.95 "Hg10 mi
3:30 AM73 °FClear.3 mph78%29.95 "Hg10 mi
3:00 AM73 °FClear.3 mph78%29.95 "Hg10 mi
2:30 AM73 °FPassing clouds.6 mph78%29.95 "HgN/A
2:00 AM73 °FPassing clouds.6 mph78%29.95 "HgN/A
1:30 AM73 °FPassing clouds.3 mph78%29.95 "HgN/A
1:00 AM73 °FPassing clouds.3 mph78%29.95 "HgN/A
12:30 AM73 °FPassing clouds.6 mph78%29.95 "HgN/A
12:00 AM73 °FPassing clouds.6 mph78%29.98 "HgN/A
Weather by CustomWeather, © 2014

See weather overviewHow to use our weather pages